Location: Berville
(49.1893°N, 2.0748°E)
Time: 17:16:19
(UTC+00:00)

Okean O Rocket - Pass Details

Date: 08 February 2023
Orbit: 620 x 643 km, 98.1° (Epoch: 30 March)

Event Time Altitude Azimuth Distance (km) Brightness Sun altitude
Rises 17:48:03 0° 128° (SE) 2,925 4.6 -8.4°
Reaches altitude 10° 17:50:36 10° 113° (ESE) 2,025 3.7 -8.8°
Maximum altitude 17:54:02 23° 62° (ENE) 1,372 2.8 -9.3°
Drops below altitude 10° 17:57:31 10° 11° (N) 2,047 4.0 -9.9°
Sets 18:00:05 0° 357° (N) 2,964 5.0 -10.3°
